Location: Charlottesville
(38.0290°N, 78.4770°W)
Time: 04:53:10
(UTC-04:00)

Tiangong 2 - Pass Details

Date: 16 October 2017
Orbit: 388 x 392 km, 42.8° (Epoch: 19 October)

Event Time Altitude Azimuth Distance (km) Brightness Sun altitude
Exits shadow 06:13:06 24° 315° (NW) 867 2.4 -14.7°
Maximum altitude 06:14:37 40° 11° (N) 584 2.0 -14.4°
Drops below altitude 10° 06:17:40 10° 83° (E) 1,419 5.4 -13.8°
Sets 06:19:49 0° 91° (E) 2,274 7.1 -13.3°
